[[{"header":{"parameterUnit":"m.s-1","parameterCategory":1,"la1":30.2991,"la2":30.254,"lo1":-89.0895,"lo2":-89.0444,"dy":0.0017,"dx":0.0017,"nx":28,"ny":28,"refTime":"2025-06-09T21:00:00:Z","depth":0,"parameterNumber":2,"parameterNumberName":"U-component_of_WINDS"},"data":[0,0,0,0,0,0,0,0,0,0,0,0,0,0,0,0,0,0,0,0,0,0,0,0,0,0,0,0,0,0,0,0,0,0,0,0,0,0,0,0,0,0,0,0,0,0,0,0,0,0,0,0,0,0,0,0,0,0,5.2358,5.2359,0,5.2444,5.2445,5.2446,5.2428,5.2427,5.2425,5.2424,5.2511,5.2515,5.2519,0,0,0,0,0,0,0,0,0,0,0,0,0,5.218,5.2183,5.2358,5.2359,5.236,5.2444,5.2445,5.2446,5.2429,5.2427,5.2425,5.2423,5.251,5.2515,5.2519,0,0,0,0,0,0,0,0,0,0,0,0,0,5.2261,5.2184,5.2358,5.2362,5.2363,5.2443,5.2445,5.2446,5.2429,5.2427,5.2424,5.2422,5.2509,5.2514,5.252,5.2602,0,0,5.2537,5.254,0,0,0,0,0,0,0,0,5.2256,5.2267,5.236,5.2362,5.2363,5.2423,5.2414,5.2498,5.243,5.2404,5.2424,5.2421,5.2484,5.2491,5.2513,5.2606,5.261,5.2538,5.2541,5.2544,5.2545,0,0,0,0,0,0,0,5.225,5.2263,5.2392,5.2361,5.2363,5.2359,5.2368,5.243,5.2456,5.2406,5.2405,5.2415,5.2484,5.2507,5.2515,5.2611,5.2538,5.2543,5.2546,5.2548,5.2775,5.2777,0,0,0,0,0,0,5.2244,5.2259,5.2389,5.2395,5.2303,5.2364,5.2374,5.2406,5.2455,5.2461,5.2417,5.2414,5.2499,5.2508,5.2518,5.2616,5.2544,5.2549,5.2552,5.2772,5.2776,5.2778,0,0,0,0,0,0,5.224,5.2255,5.2386,5.2326,5.2343,5.237,5.2406,5.2409,5.2432,5.2464,5.2468,5.2436,5.2497,5.251,5.2581,5.2619,5.2551,5.2557,5.2769,5.2773,5.2777,5.2813,0,0,0,0,0,0,5.2235,5.2254,5.2286,5.2327,5.2346,5.2448,5.2408,5.2412,5.2442,5.2439,5.2482,5.2487,5.2496,5.2572,5.2586,5.2625,5.2561,5.2766,5.2771,5.2776,5.2809,5.2818,5.2826,0,0,0,0,0,5.2228,5.2293,5.2287,5.2303,5.2386,5.245,5.2461,5.2469,5.2445,5.2476,5.2497,5.2486,5.2613,5.258,5.2595,5.2637,5.2764,5.277,5.2775,5.2805,5.2816,5.2826,0,0,0,0,0,0,5.2255,5.2298,5.2293,5.2372,5.2407,5.2447,5.2487,5.2481,5.2524,5.2519,5.2528,5.2538,5.2611,5.2631,5.2594,5.2718,5.2685,5.2694,5.2702,5.2713,5.2721,5.2714,5.2566,0,0,0,0,0,5.227,5.2318,5.2354,5.242,5.2438,5.246,5.2488,5.2492,5.2529,5.2543,5.2569,5.2605,5.2653,5.2684,5.273,5.2812,5.2821,5.2848,5.2857,5.2864,5.2871,5.2915,5.2927,5.2798,5.2798,5.2797,0,0,5.2301,5.2331,5.2361,5.2426,5.2454,5.2504,5.2472,5.2526,5.2563,5.2552,5.262,5.264,5.2681,5.2758,5.2793,5.2777,5.2909,5.2871,5.2876,5.288,5.2922,5.2934,5.2945,5.2802,5.2801,5.28,0,0,5.2383,5.2411,5.2469,5.2498,5.254,5.2554,5.2568,5.2609,5.2622,5.2691,5.2683,5.2727,5.2809,5.2838,5.2864,5.2958,5.2949,5.2973,5.3016,5.3059,5.3069,5.3078,5.311,5.3122,5.298,5.2981,5.2981,0,5.2417,5.2491,5.25,5.2555,5.2583,5.2576,5.2634,5.2662,5.2717,5.2737,5.2718,5.2821,5.2849,5.2931,5.2954,5.2976,5.2991,5.2967,5.3067,5.3076,5.3085,5.3116,5.3128,5.2983,5.2983,5.2982,5.2982,0,5.253,5.2582,5.2624,5.2677,5.2711,5.2767,5.2784,5.2817,5.2819,5.2834,5.2904,5.2937,5.2988,5.3009,5.3011,5.3092,5.3081,5.3065,5.3031,5.31,5.3128,5.314,5.2986,5.2986,5.2985,5.2984,0,0,5.263,5.2687,5.2702,5.2726,5.2773,5.2813,5.2869,5.292,5.2947,5.2986,5.3033,5.3103,5.3088,5.3117,5.3123,5.316,5.3231,5.314,5.3141,5.3154,5.3321,5.3331,5.3345,5.3226,5.3228,5.323,5.3317,0,5.2715,5.2814,5.2823,5.2912,5.2959,5.2953,5.3001,5.3035,5.3052,5.3094,5.3113,5.3161,5.3139,5.3157,5.3194,5.3214,5.3264,5.3208,5.3268,5.327,5.3256,5.336,5.3371,5.3452,5.3328,5.333,5.3332,0,5.2827,5.2869,5.2962,5.3001,5.3021,5.3065,5.3112,5.3153,5.3191,5.32,5.3233,5.3233,5.3291,5.3256,5.3335,5.3297,5.3322,5.3336,5.3339,5.3344,5.3304,5.3366,5.3478,5.3489,5.335,5.3349,5.3347,0,5.2889,5.2968,5.3034,5.3055,5.3103,5.3133,5.3155,5.319,5.322,5.3261,5.328,5.3328,5.3354,5.3391,5.3403,5.3377,5.3481,5.3448,5.349,5.3489,5.351,5.3509,5.3626,5.353,5.353,5.3529,5.3529,0,5.2982,5.3039,5.3062,5.3102,5.3165,5.3176,5.3239,5.3259,5.329,5.3334,5.3332,5.3373,5.3388,5.3432,5.3443,5.3505,5.3518,5.3526,5.3528,5.3525,5.3524,5.3541,5.3535,5.3533,5.3532,5.3531,5.3531,0,5.3061,5.3079,5.3149,5.3189,5.3201,5.3245,5.3279,5.3318,5.3334,5.3389,5.3403,5.3428,5.3479,5.3496,5.3558,5.3565,5.3638,5.3636,5.3625,5.3624,5.3665,5.366,5.3796,5.3813,5.3707,5.3708,5.3709,0,5.3118,5.3161,5.3206,5.3235,5.3257,5.3304,5.3334,5.3347,5.3379,5.3425,5.3458,5.3509,5.355,5.3632,5.3655,5.3703,5.37,5.3745,5.3707,5.3703,5.3699,5.3695,5.3699,5.3751,5.3752,5.3753,5.3754,0,5.3217,5.3224,5.3268,5.3315,5.3351,5.3388,5.3424,5.3448,5.3466,5.3502,5.3554,5.3586,5.3649,5.3699,5.3747,5.3769,5.3764,5.3766,5.3778,5.3774,5.3765,5.3769,5.3642,5.3762,5.3761,5.3761,5.376,5.376,5.3286,5.3324,5.3361,5.3409,5.3438,5.3472,5.3509,5.3531,5.3574,5.3626,5.3631,5.3687,5.3724,5.3788,5.3813,5.3856,5.3843,5.3861,5.3865,5.3869,5.3871,5.376,5.3865,5.3865,5.3865,5.3865,5.3865,0,5.3383,5.3407,5.3452,5.3502,5.354,5.3534,5.3573,5.3605,5.3654,5.3689,5.373,5.3789,5.3837,5.3865,5.3914,5.3943,5.3942,5.3955,5.3952,5.3957,5.388,5.3864,5.3955,5.3955,5.3955,5.3955,5.3955,5.3955,5.3439,5.3502,5.3513,5.359,5.3614,5.3668,5.3691,5.3722,5.375,5.3816,5.3857,5.3875,5.3906,5.3957,5.4001,5.4008,5.4025,5.4039,5.4044,5.3972,5.3963,5.3954,5.3939,5.4043,5.4043,5.4117,5.4118,5.4118]},{"header":{"parameterUnit":"m.s-1","parameterCategory":1,"la1":30.2991,"la2":30.254,"lo1":-89.0895,"lo2":-89.0444,"dy":0.0017,"dx":0.0017,"nx":28,"ny":28,"refTime":"2025-06-09T21:00:00:Z","depth":0,"parameterNumber":3,"parameterNumberName":"V-component_of_WINDS"},"data":[0,0,0,0,0,0,0,0,0,0,0,0,0,0,0,0,0,0,0,0,0,0,0,0,0,0,0,0,0,0,0,0,0,0,0,0,0,0,0,0,0,0,0,0,0,0,0,0,0,0,0,0,0,0,0,0,0,0,3.824,3.824,0,3.83,3.8301,3.8302,3.8308,3.8308,3.8307,3.8306,3.8364,3.8366,3.8369,0,0,0,0,0,0,0,0,0,0,0,0,0,3.8124,3.8126,3.8239,3.824,3.8241,3.83,3.8301,3.8302,3.8308,3.8308,3.8307,3.8306,3.8364,3.8366,3.8369,0,0,0,0,0,0,0,0,0,0,0,0,0,3.8178,3.8127,3.8239,3.8251,3.8253,3.83,3.8301,3.8302,3.8308,3.8307,3.8307,3.8306,3.8363,3.8366,3.8369,3.8407,0,0,3.8379,3.838,0,0,0,0,0,0,0,0,3.8175,3.8183,3.8249,3.8251,3.8253,3.8296,3.8282,3.8337,3.8309,3.8287,3.8306,3.8305,3.8342,3.8347,3.836,3.841,3.8412,3.8379,3.8381,3.8382,3.8383,0,0,0,0,0,0,0,3.8172,3.818,3.8263,3.825,3.8252,3.8252,3.8259,3.8292,3.8319,3.8289,3.829,3.8297,3.8343,3.8357,3.8362,3.8413,3.8379,3.8382,3.8384,3.8385,3.8496,3.8497,0,0,0,0,0,0,3.8166,3.8177,3.8262,3.8265,3.8211,3.8255,3.8263,3.8283,3.8319,3.8323,3.8298,3.8297,3.8352,3.8358,3.8364,3.841,3.8382,3.8385,3.8387,3.8495,3.8496,3.8497,0,0,0,0,0,0,3.8164,3.8174,3.8259,3.8221,3.8232,3.8258,3.8281,3.8285,3.8299,3.8325,3.833,3.8308,3.8352,3.8359,3.8396,3.8412,3.8387,3.839,3.8494,3.8495,3.8497,3.8503,0,0,0,0,0,0,3.816,3.8173,3.8189,3.8222,3.8234,3.8292,3.8282,3.8286,3.8305,3.8305,3.8336,3.834,3.8352,3.8392,3.84,3.8416,3.8392,3.8492,3.8494,3.8496,3.8502,3.8505,3.8508,0,0,0,0,0,3.8156,3.8187,3.8189,3.8199,3.8255,3.8293,3.83,3.8314,3.8306,3.8321,3.8338,3.8339,3.8409,3.8395,3.8404,3.8422,3.8491,3.8494,3.8496,3.8501,3.8504,3.8508,0,0,0,0,0,0,3.8153,3.8192,3.8194,3.8237,3.8262,3.8294,3.8314,3.8318,3.8344,3.8342,3.8357,3.8364,3.8401,3.8415,3.8399,3.846,3.8449,3.8454,3.845,3.8454,3.8456,3.8452,3.8395,0,0,0,0,0,3.8158,3.8188,3.8219,3.8253,3.8266,3.8288,3.8305,3.8314,3.8339,3.8349,3.8369,3.8392,3.842,3.8437,3.8464,3.8504,3.851,3.8521,3.8523,3.8526,3.8529,3.855,3.8555,3.8505,3.8505,3.8505,0,0,3.8167,3.8192,3.8209,3.8254,3.8274,3.8302,3.8296,3.8327,3.8348,3.8353,3.839,3.8405,3.8432,3.8471,3.8489,3.8484,3.8544,3.8529,3.853,3.8532,3.8553,3.8558,3.8562,3.8507,3.8506,3.8506,0,0,3.8199,3.8221,3.8253,3.8273,3.8304,3.8319,3.8326,3.8358,3.8369,3.8406,3.841,3.8435,3.8482,3.8501,3.8517,3.8556,3.8557,3.8564,3.8579,3.86,3.8604,3.8607,3.862,3.8625,3.8567,3.8567,3.8567,0,3.8207,3.8252,3.8268,3.8299,3.8317,3.8325,3.8356,3.8375,3.8412,3.8424,3.8419,3.8478,3.8497,3.854,3.8549,3.8562,3.857,3.856,3.8602,3.8606,3.8609,3.8622,3.8627,3.8568,3.8568,3.8568,3.8568,0,3.8259,3.829,3.8311,3.8349,3.837,3.8401,3.842,3.8439,3.8446,3.846,3.8498,3.8521,3.8552,3.8563,3.8569,3.8606,3.8602,3.8599,3.8588,3.8614,3.8627,3.8632,3.8569,3.8568,3.8568,3.8568,0,0,3.829,3.8337,3.8345,3.8362,3.8397,3.842,3.8451,3.8483,3.8498,3.8524,3.8549,3.8589,3.8586,3.8604,3.8613,3.8631,3.866,3.8625,3.8626,3.8631,3.8701,3.8703,3.8709,3.8661,3.8662,3.8663,3.8699,0,3.8326,3.8382,3.8397,3.8444,3.8473,3.848,3.8506,3.853,3.8544,3.8569,3.8584,3.8612,3.8607,3.8618,3.8636,3.8652,3.8674,3.865,3.8683,3.8684,3.8676,3.8715,3.8717,3.875,3.8704,3.8705,3.8705,0,3.8375,3.8403,3.8453,3.8484,3.8497,3.852,3.8551,3.8575,3.8601,3.861,3.8631,3.8637,3.8668,3.8656,3.8697,3.8681,3.8695,3.8705,3.8707,3.871,3.8696,3.8719,3.8761,3.8766,3.8713,3.8712,3.8712,0,3.8392,3.8442,3.8479,3.8493,3.8531,3.8547,3.8563,3.8589,3.8607,3.8633,3.8645,3.8673,3.8689,3.871,3.8724,3.8714,3.8764,3.8753,3.8771,3.8771,3.8781,3.878,3.8826,3.8791,3.8791,3.8791,3.8791,0,3.8429,3.846,3.8487,3.851,3.8543,3.856,3.8592,3.8608,3.8631,3.8656,3.8663,3.8686,3.8703,3.8727,3.8738,3.8771,3.8778,3.8785,3.8787,3.8784,3.8783,3.8793,3.8791,3.8792,3.8792,3.8792,3.8792,0,3.8454,3.8474,3.8514,3.8547,3.8556,3.8579,3.8606,3.8628,3.8642,3.8673,3.8681,3.8704,3.8733,3.8749,3.8785,3.8793,3.8829,3.883,3.882,3.8821,3.8838,3.8836,3.8892,3.8899,3.886,3.886,3.886,0,3.8477,3.85,3.8536,3.8554,3.8571,3.8599,3.8618,3.8635,3.8654,3.8686,3.8703,3.8733,3.8758,3.8804,3.8823,3.885,3.8852,3.887,3.8856,3.8852,3.8852,3.885,3.8852,3.8872,3.8872,3.8872,3.8873,0,3.8514,3.8523,3.8551,3.8583,3.8606,3.8631,3.8655,3.8669,3.869,3.8711,3.8742,3.8761,3.8799,3.8828,3.8857,3.8872,3.8875,3.8877,3.8882,3.8879,3.8872,3.8876,3.8826,3.8875,3.8875,3.8875,3.8875,3.8875,3.8538,3.856,3.8588,3.8619,3.864,3.8663,3.8685,3.8703,3.8729,3.8762,3.877,3.8802,3.8827,3.8867,3.8883,3.8907,3.8904,3.8912,3.8914,3.8915,3.8916,3.8869,3.8912,3.8912,3.8912,3.8912,3.8912,0,3.8576,3.8595,3.8623,3.8658,3.8682,3.8685,3.8713,3.8732,3.8761,3.8785,3.881,3.8845,3.8873,3.8894,3.8923,3.8938,3.8941,3.8945,3.8944,3.8947,3.8917,3.891,3.8943,3.8943,3.8943,3.8943,3.8943,3.8943,3.8598,3.8635,3.8647,3.8693,3.8711,3.8744,3.876,3.878,3.88,3.8839,3.8863,3.8877,3.89,3.893,3.8956,3.8961,3.8971,3.8976,3.8981,3.8953,3.8949,3.8946,3.8939,3.8978,3.8978,3.9009,3.9009,3.9009]}]]